FW2925 Weather Reports


Display with metric or nautical units.
time (UTC)temp
F
wind
direction
speed
MPH
gust
MPH
rain 1hr
in
rain 24hr
in
rain mn
in
humidity
%
barometer
mb
20210926213004 80 269 0.0 6.0 0.00 0.00 0.00 51 1018.1
20210926211505 80 227 1.0 3.0 0.00 0.00 0.00 48 1018.1
20210926211005 80 289 0.0 3.0 0.00 0.00 0.00 49 1018.2
20210926210504 80 235 0.0 3.0 0.00 0.00 0.00 48 1018.1
20210926210005 80 310 1.0 3.0 0.00 0.00 0.00 50 1018.1
20210926204504 81 286 1.0 3.0 0.00 0.00 0.00 49 1018.2
20210926204005 80 113 0.0 5.0 0.00 0.00 0.00 50 1018.3
20210926203503 81 292 1.0 5.0 0.00 0.00 0.00 48 1018.4
20210926203005 81 312 0.0 3.0 0.00 0.00 0.00 48 1018.4
20210926201504 80 309 2.0 7.0 0.00 0.00 0.00 51 1018.5
20210926201004 81 299 1.0 3.0 0.00 0.00 0.00 50 1018.5
20210926200503 81 324 1.0 3.0 0.00 0.00 0.00 52 1018.6
20210926200004 81 295 1.0 5.0 0.00 0.00 0.00 51 1018.6
20210926194504 80 204 1.0 7.0 0.00 0.00 0.00 49 1018.7
20210926194005 80 272 1.0 7.0 0.00 0.00 0.00 49 1018.7
20210926193505 81 296 0.0 5.0 0.00 0.00 0.00 47 1018.9
20210926193004 80 217 2.0 5.0 0.00 0.00 0.00 48 1018.9
20210926191505 78 232 0.0 3.0 0.00 0.00 0.00 55 1019.1
20210926191003 77 261 1.0 3.0 0.00 0.00 0.00 54 1019.2
20210926190505 78 304 1.0 3.0 0.00 0.00 0.00 53 1019.3
20210926190005 79 316 0.0 3.0 0.00 0.00 0.00 54 1019.4
20210926184505 80 303 1.0 5.0 0.00 0.00 0.00 55 1019.7
20210926184003 80 304 1.0 3.0 0.00 0.00 0.00 55 1019.8
20210926183504 79 225 0.0 3.0 0.00 0.00 0.00 52 1019.8
20210926183004 80 153 1.0 9.0 0.00 0.00 0.00 53 1019.9
20210926181506 79 280 2.0 7.0 0.00 0.00 0.00 53 1020.0
20210926181004 79 266 1.0 7.0 0.00 0.00 0.00 53 1020.2
20210926180505 80 169 0.0 3.0 0.00 0.00 0.00 56 1020.3
20210926180004 79 308 0.0 3.0 0.00 0.00 0.00 60 1020.4
20210926174504 78 291 1.0 3.0 0.00 0.00 0.00 59 1020.5
20210926174005 77 250 1.0 6.0 0.00 0.00 0.00 58 1020.6
20210926173504 78 197 2.0 6.0 0.00 0.00 0.00 57 1020.8
20210926173005 78 154 2.0 6.0 0.00 0.00 0.00 58 1020.9
20210926171504 78 262 2.0 8.0 0.00 0.00 0.00 59 1021.2
20210926171004 78 188 2.0 6.0 0.00 0.00 0.00 60 1021.2
20210926170505 78 281 1.0 5.0 0.00 0.00 0.00 62 1021.2
20210926170005 78 222 2.0 5.0 0.00 0.00 0.00 60 1021.2
20210926164505 76 303 1.0 5.0 0.00 0.00 0.00 64 1021.2
20210926164004 76 200 1.0 7.0 0.00 0.00 0.00 63 1021.3
20210926163504 76 237 1.0 7.0 0.00 0.00 0.00 67 1021.3
20210926163005 76 315 1.0 7.0 0.00 0.00 0.00 67 1021.4
20210926161504 75 280 1.0 5.0 0.00 0.00 0.00 66 1021.4
20210926161005 75 266 1.0 5.0 0.00 0.00 0.00 66 1021.7
20210926160503 74 153 1.0 5.0 0.00 0.00 0.00 66 1021.6
20210926160005 74 164 1.0 5.0 0.00 0.00 0.00 68 1021.6
20210926154505 74 133 0.0 3.0 0.00 0.00 0.00 68 1021.7
20210926154004 74 231 0.0 3.0 0.00 0.00 0.00 71 1021.6
20210926153503 73 204 1.0 3.0 0.00 0.00 0.00 69 1021.6
20210926153005 73 260 1.0 3.0 0.00 0.00 0.00 69 1021.6
20210926151504 72 233 1.0 3.0 0.00 0.00 0.00 70 1021.5
20210926151004 72 249 0.0 2.0 0.00 0.00 0.00 73 1021.5
20210926150505 72 323 0.0 2.0 0.00 0.00 0.00 72 1021.4
20210926150004 71 243 0.0 3.0 0.00 0.00 0.00 74 1021.5
20210926144505 70 243 0.0 2.0 0.00 0.00 0.00 79 1021.6
20210926144003 69 243 0.0 2.0 0.00 0.00 0.00 80 1021.5
20210926143504 69 243 0.0 2.0 0.00 0.00 0.00 81 1021.5
20210926143004 68 243 0.0 1.0 0.00 0.00 0.00 81 1021.5
20210926141504 68 243 0.0 1.0 0.00 0.00 0.00 84 1021.5
20210926141004 67 243 0.0 2.0 0.00 0.00 0.00 85 1021.5
20210926140506 67 243 0.0 2.0 0.00 0.00 0.00 86 1021.5
20210926140004 66 243 0.0 2.0 0.00 0.00 0.00 87 1021.5
20210926134503 65 243 0.0 1.0 0.00 0.00 0.00 89 1021.4
20210926134005 64 243 0.0 1.0 0.00 0.00 0.00 90 1021.3
20210926133504 64 243 0.0 1.0 0.00 0.00 0.00 92 1021.2
20210926133005 63 243 0.0 1.0 0.00 0.00 0.00 93 1021.1
20210926131504 62 243 0.0 0.0 0.00 0.00 0.00 95 1021.0
20210926131006 61 243 0.0 0.0 0.00 0.00 0.00 96 1021.0
20210926130503 61 243 0.0 0.0 0.00 0.00 0.00 96 1021.0
20210926130005 61 243 0.0 0.0 0.00 0.00 0.00 97 1020.9
20210926124505 59 243 0.0 0.0 0.00 0.00 0.00 100 1020.7
20210926124003 58 243 0.0 0.0 0.00 0.00 0.00 100 1020.5
20210926123505 58 243 0.0 0.0 0.00 0.00 0.00 100 1020.5
20210926123004 58 243 0.0 0.0 0.00 0.00 0.00 100 1020.4
20210926121504 56 243 0.0 0.0 0.00 0.00 0.00 97 1020.2
20210926121005 56 243 0.0 0.0 0.00 0.00 0.00 100 1020.1
20210926120504 56 243 0.0 0.0 0.00 0.00 0.00 100 1020.0
20210926120005 56 243 0.0 0.0 0.00 0.00 0.00 97 1020.1
20210926114505 55 243 0.0 0.0 0.00 0.00 0.00 97 1020.1
20210926114004 55 243 0.0 0.0 0.00 0.00 0.00 97 1020.0
20210926113506 55 243 0.0 0.0 0.00 0.00 0.00 97 1019.9
20210926113004 55 243 0.0 0.0 0.00 0.00 0.00 97 1020.0
20210926111505 55 243 0.0 0.0 0.00 0.00 0.00 97 1019.7
20210926111005 55 243 0.0 0.0 0.00 0.00 0.00 97 1019.7
20210926110503 55 243 0.0 0.0 0.00 0.00 0.00 97 1019.7
20210926110005 55 243 0.0 0.0 0.00 0.00 0.00 97 1019.7
20210926104505 56 243 0.0 0.0 0.00 0.00 0.00 97 1019.7
20210926104004 56 243 0.0 0.0 0.00 0.00 0.00 97 1019.6
20210926103505 56 243 0.0 0.0 0.00 0.00 0.00 97 1019.4
20210926103004 56 243 0.0 0.0 0.00 0.00 0.00 97 1019.4
20210926101505 56 243 0.0 0.0 0.00 0.00 0.00 97 1019.2
20210926101005 56 243 0.0 0.0 0.00 0.00 0.00 97 1019.2
20210926100505 56 243 0.0 0.0 0.00 0.00 0.00 97 1019.2
20210926100004 56 243 0.0 0.0 0.00 0.00 0.00 97 1019.1
20210926094503 56 243 0.0 0.0 0.00 0.00 0.00 97 1019.1
20210926094005 56 243 0.0 0.0 0.00 0.00 0.00 97 1019.1
20210926093504 56 243 0.0 0.0 0.00 0.00 0.00 97 1019.0
20210926093005 56 243 0.0 0.0 0.00 0.00 0.00 97 1019.0
20210926091506 56 243 0.0 0.0 0.00 0.00 0.00 97 1019.0
20210926091005 57 243 0.0 0.0 0.00 0.00 0.00 97 1019.1
20210926090505 57 243 0.0 0.0 0.00 0.00 0.00 97 1019.1
20210926090004 57 243 0.0 0.0 0.00 0.00 0.00 97 1019.0
20210926084503 57 243 0.0 0.0 0.00 0.00 0.00 97 1019.0
20210926084006 57 243 0.0 0.0 0.00 0.00 0.00 97 1018.9
20210926083503 57 243 0.0 0.0 0.00 0.00 0.00 97 1018.8
20210926083005 57 243 0.0 0.0 0.00 0.00 0.00 97 1019.0
20210926081505 57 243 0.0 0.0 0.00 0.00 0.00 97 1019.0
20210926081006 57 243 0.0 0.0 0.00 0.00 0.00 96 1019.1
20210926080504 57 243 0.0 0.0 0.00 0.00 0.00 97 1019.1
20210926080005 57 243 0.0 0.0 0.00 0.00 0.00 97 1019.1
20210926074504 57 243 0.0 0.0 0.00 0.00 0.00 96 1019.0
20210926074004 58 243 0.0 0.0 0.00 0.00 0.00 96 1019.0
20210926073504 58 243 0.0 0.0 0.00 0.00 0.00 96 1019.0
20210926073004 58 243 0.0 0.0 0.00 0.00 0.00 97 1019.0
20210926071505 58 243 0.0 0.0 0.00 0.00 0.00 97 1019.2
20210926071005 58 243 0.0 0.0 0.00 0.00 0.00 96 1019.2
20210926070505 58 243 0.0 0.0 0.00 0.00 0.00 96 1019.3
20210926070004 58 243 0.0 0.0 0.00 0.00 0.00 96 1019.3
20210926064505 58 243 0.0 0.0 0.00 0.00 0.00 96 1019.3
20210926064005 58 243 0.0 0.0 0.00 0.00 0.00 96 1019.3
20210926063504 58 243 0.0 0.0 0.00 0.00 0.00 96 1019.3
20210926063005 58 243 0.0 0.0 0.00 0.00 0.00 96 1019.3
20210926061505 59 243 0.0 0.0 0.00 0.00 0.00 96 1019.1
20210926061005 59 243 0.0 0.0 0.00 0.00 0.00 96 1019.1
20210926060505 59 243 0.0 0.0 0.00 0.00 0.00 96 1019.1
20210926060005 59 243 0.0 0.0 0.00 0.00 0.00 96 1019.1
20210926054504 59 243 0.0 0.0 0.00 0.00 0.00 96 1019.1
20210926054005 59 243 0.0 0.0 0.00 0.00 0.00 96 1019.1
20210926053505 59 243 0.0 0.0 0.00 0.00 0.00 96 1019.1
20210926053005 59 243 0.0 0.0 0.00 0.00 0.00 96 1019.1
20210926051504 59 243 0.0 0.0 0.00 0.00 0.00 95 1019.3
20210926051005 59 243 0.0 0.0 0.00 0.00 0.00 95 1019.3
20210926050504 59 243 0.0 0.0 0.00 0.00 0.00 95 1019.3
20210926050006 60 243 0.0 0.0 0.00 0.00 0.00 95 1019.3
20210926044505 60 243 0.0 0.0 0.00 0.00 0.00 94 1019.2
20210926044003 60 243 0.0 0.0 0.00 0.00 0.00 94 1019.2
20210926043504 60 243 0.0 0.0 0.00 0.00 0.00 94 1019.2
20210926043006 60 243 0.0 0.0 0.00 0.00 0.00 94 1019.2
20210926041505 60 243 0.0 0.0 0.00 0.00 0.00 94 1019.2
20210926041005 60 243 0.0 0.0 0.00 0.00 0.00 94 1019.2
20210926040504 60 243 0.0 0.0 0.00 0.00 0.00 94 1019.1
20210926040005 60 243 0.0 0.0 0.00 0.00 0.00 94 1019.0
20210926034504 61 243 0.0 0.0 0.00 0.00 0.00 94 1019.0
20210926034005 61 243 0.0 0.0 0.00 0.00 0.00 93 1018.9
20210926033505 61 243 0.0 0.0 0.00 0.00 0.00 93 1018.8
20210926033004 61 243 0.0 0.0 0.00 0.00 0.00 93 1018.9
20210926031505 61 243 0.0 0.0 0.00 0.00 0.00 93 1018.6
20210926031005 61 243 0.0 0.0 0.00 0.00 0.00 94 1018.6
20210926030504 61 243 0.0 0.0 0.00 0.00 0.00 93 1018.5
20210926030005 61 243 0.0 0.0 0.00 0.00 0.00 93 1018.5
20210926024503 61 243 0.0 0.0 0.00 0.00 0.00 92 1018.6
20210926024006 62 243 0.0 0.0 0.00 0.00 0.00 92 1018.5
20210926023504 62 243 0.0 0.0 0.00 0.00 0.00 92 1018.5
20210926023005 62 243 0.0 0.0 0.00 0.00 0.00 92 1018.4
20210926021504 62 243 0.0 0.0 0.00 0.00 0.00 91 1018.4
20210926021007 62 243 0.0 0.0 0.00 0.00 0.00 91 1018.4
20210926020504 62 243 0.0 0.0 0.00 0.00 0.00 91 1018.5
20210926020005 62 243 0.0 0.0 0.00 0.00 0.00 90 1018.5
20210926014505 63 243 0.0 0.0 0.00 0.00 0.00 90 1018.4
20210926014003 63 243 0.0 0.0 0.00 0.00 0.00 89 1018.4
20210926013505 63 243 0.0 0.0 0.00 0.00 0.00 89 1018.3
20210926013004 63 243 0.0 0.0 0.00 0.00 0.00 88 1018.3
20210926011504 64 243 0.0 0.0 0.00 0.00 0.00 88 1018.2
20210926011005 64 243 0.0 0.0 0.00 0.00 0.00 87 1018.2
20210926010503 64 243 0.0 0.0 0.00 0.00 0.00 87 1018.2
20210926010005 64 243 0.0 0.0 0.00 0.00 0.00 87 1018.1
20210926004505 65 243 0.0 0.0 0.00 0.00 0.00 86 1018.0
20210926004004 65 243 0.0 0.0 0.00 0.00 0.00 86 1018.0
20210926003505 65 243 0.0 0.0 0.00 0.00 0.00 86 1018.0
20210926003005 65 243 0.0 0.0 0.00 0.00 0.00 85 1017.9
20210926001504 66 243 0.0 0.0 0.00 0.00 0.00 83 1017.9
20210926001006 66 243 0.0 0.0 0.00 0.00 0.00 83 1017.8
20210926000503 66 243 0.0 0.0 0.00 0.00 0.00 82 1017.7
20210926000003 66 243 0.0 0.0 0.00 0.00 0.00 81 1017.7
20210925234504 68 243 0.0 0.0 0.00 0.00 0.00 80 1017.7
20210925234003 68 243 0.0 0.0 0.00 0.00 0.00 78 1017.7
20210925233504 69 243 0.0 0.0 0.00 0.00 0.00 76 1017.7
20210925233003 69 243 0.0 0.0 0.00 0.00 0.00 74 1017.7
20210925231504 71 243 0.0 0.0 0.00 0.00 0.00 69 1017.8
20210925231003 72 243 0.0 0.0 0.00 0.00 0.00 67 1017.7
20210925230504 72 243 0.0 1.0 0.00 0.00 0.00 65 1017.8
20210925230004 73 243 0.0 1.0 0.00 0.00 0.00 64 1017.6
20210925224503 74 243 0.0 2.0 0.00 0.00 0.00 61 1017.7
20210925224003 74 239 0.0 0.0 0.00 0.00 0.00 60 1017.7
20210925223504 74 239 0.0 2.0 0.00 0.00 0.00 60 1017.8
20210925223004 75 239 0.0 3.0 0.00 0.00 0.00 59 1017.7
20210925221503 76 219 1.0 5.0 0.00 0.00 0.00 57 1017.8
20210925221004 76 191 1.0 7.0 0.00 0.00 0.00 56 1017.8
20210925220503 76 265 0.0 7.0 0.00 0.00 0.00 57 1017.8
20210925220004 77 213 1.0 3.0 0.00 0.00 0.00 56 1017.8
20210925214504 77 235 0.0 5.0 0.00 0.00 0.00 56 1017.8
20210925214003 77 248 0.0 3.0 0.00 0.00 0.00 56 1017.8
20210925213504 77 279 1.0 3.0 0.00 0.00 0.00 55 1017.8